Regional Weather Roundup
Issued by NWS

Home | Current Version | Previous Version | Graphics & Text | Print | Product List | Glossary On
Versions: 1 2 3 4 5 6 7 8 9 10 11 12 13 14 15 16 17 18 19 20 21 22 23 24 25 26 27 28 29 30 31 32 33 34 35 36 37 38 39 40 41 42 43 44 45 46 47 48 49 50
594
ASUS43 KLSX 190507
RWRMO

WEATHER SUMMARY FOR MISSOURI
NATIONAL WEATHER SERVICE SPRINGFIELD MO
1200 AM CDT THU OCT 19 2017

NOTE: "FAIR" INDICATES FEW OR NO CLOUDS BELOW 12,000 FEET WITH NO
       SIGNIFICANT WEATHER AND/OR OBSTRUCTIONS TO VISIBILITY.
       CURRENT SKY AND/OR WEATHER CONDITIONS ARE NOT AVAILABLE FOR
       CHILLICOTHE AND FARMINGTON.

MOZ001>031-035>038-043-044-053-054-190600-
...NORTHERN AND WESTERN MISSOURI...

CITY           SKY/WX    TMP DP  RH WIND       PRES   REMARKS
KANSAS CTY INT CLEAR     57  51  80 SW9       30.05R
KANSAS C DTWN  CLEAR     61  51  70 S8        30.05R
LEE`S SUMMIT   CLEAR     63  50  62 SW12      30.07S
ST JOSEPH      CLEAR     48  48 100 CALM      30.04S
CHILLICOTHE      N/A     53  51  93 CALM      30.06S
KIRKSVILLE     CLEAR     51  49  92 CALM      30.07S

$$
MOZ066>068-077>081-088>096-101>105-190600-
...SOUTHWEST MISSOURI...

CITY           SKY/WX    TMP DP  RH WIND       PRES   REMARKS
SPRINGFIELD    CLEAR     59  45  59 S12       30.10S
JOPLIN         CLOUDY    55  48  77 S8        30.10R
BRANSON        CLEAR     54  46  76 CALM      30.14S

$$
MOZ032>034-039>042-045>050-055>058-069>072-190600-
...CENTRAL MISSOURI...

CITY           SKY/WX    TMP DP  RH WIND       PRES   REMARKS
COLUMBIA       CLEAR     56  46  69 S8        30.09S
JEFFERSON CITY CLEAR     51  45  79 CALM      30.10R
ROLLA          CLEAR     59  48  67 S14       30.11S
SEDALIA        CLEAR     60  51  72 S8        30.10R
WHITEMAN AFB   CLEAR     56  49  78 S7        30.04R
WARRENSBURG    CLEAR     55  48  76 S6        30.07S
OSAGE BEACH    CLEAR     55  47  74 S3        30.12R

$$
MOZ051-052-059>065-190600-
...EAST CENTRAL MISSOURI...

CITY           SKY/WX    TMP DP  RH WIND       PRES   REMARKS
ST LOUIS INTL  CLEAR     61  49  64 S7        30.11S
SPIRIT OF STL  CLEAR     56  49  77 CALM      30.10R
ST CHARLES     CLEAR     53  48  83 NE5       30.11R

$$
MOZ072>076-082>087-097>100-106>115-190600-
...SOUTH CENTRAL AND SOUTHEAST MISSOURI...

CITY           SKY/WX    TMP DP  RH WIND       PRES   REMARKS
CAPE GIRARDEAU PTCLDY    54  46  74 S7        30.17S
FARMINGTON     CLEAR     57  48  72 S6        30.15S
POPLAR BLUFF   CLEAR     52  48  86 CALM      30.17S
WEST PLAINS    CLEAR     60  48  64 S8        30.16S

$$



USA.gov is the U.S. government's official web portal to all federal, state and local government web resources and services.